10min,FGNet,santaquin,42.01,02JAN2020:00:00:00,32.4,27.4,84,31.06,34.0,0,4.3,174.9,6.7,100,0.00,0.00,0.02,30.722,31.4006
10min,FGNet,santaquin,42.01,02JAN2020:00:10:00,32.5,26.4,78,32.12,34.1,0,4.3,194.2,5.8,100,0.00,0.00,0.00,29.5358,30.0812
10min,FGNet,santaquin,42.01,02JAN2020:00:20:00,31.1,26.9,85,32.09,34.1,0,4.8,198.3,8.2,100,0.00,0.00,0.00,29.5358,30.2162
10min,FGNet,santaquin,42.01,02JAN2020:00:30:00,31.1,26.8,85,32.04,34.1,0,3.9,219.1,5.8,100,0.00,0.00,0.00,29.8076,30.488
10min,FGNet,santaquin,42.01,02JAN2020:00:40:00,31.5,26.4,82,32.07,34.1,0,4.7,206.8,8.2,100,0.00,0.00,0.00,29.4386,30.3134
10min,FGNet,santaquin,42.01,02JAN2020:00:50:00,31.5,26.3,82,32.09,34.1,0,3.7,210.8,6.5,100,0.00,0.00,0.00,29.03,30.0416
10min,FGNet,santaquin,42.01,02JAN2020:01:00:00,32.0,26.1,80,31.08,34.0,0,2.1,194.9,4.6,100,0.00,0.00,0.00,29.2244,30.2162
10min,FGNet,santaquin,42.01,02JAN2020:01:10:00,31.6,25.7,78,32.06,34.1,0,1.4,171.2,4.8,100,0.00,0.00,0.00,30.353,31.5554
10min,FGNet,santaquin,42.01,02JAN2020:01:20:00,33.6,25.2,73,31.55,34.0,0,2.0,211,4.0,100,0.00,0.00,0.00,30.6626,31.478
10min,FGNet,santaquin,42.01,02JAN2020:01:30:00,31.4,25.7,77,32.11,34.1,0,2.0,222.4,4.2,100,0.00,0.00,0.00,29.2838,29.6924
10min,FGNet,santaquin,42.01,02JAN2020:01:40:00,30.9,26.5,83,31.51,34.0,0,3.0,195.5,4.0,100,0.00,0.00,0.00,29.0894,29.4782
10min,FGNet,santaquin,42.01,02JAN2020:01:50:00,30.8,26.9,85,32.09,34.1,0,3.1,157.8,4.4,100,0.00,0.00,0.00,29.6132,30.1964
10min,FGNet,santaquin,42.01,02JAN2020:02:00:00,32.0,27.0,83,32.07,34.1,0,4.6,143.9,6.5,100,0.00,0.00,0.00,30.5654,31.1288
10min,FGNet,santaquin,42.01,02JAN2020:02:10:00,32.1,27.4,84,32.17,34.1,0,5.5,144.1,6.9,100,0.00,0.00,0.00,30.605,30.8174
10min,FGNet,santaquin,42.01,02JAN2020:02:20:00,31.8,28.0,87,32.06,34.1,0,4.3,144.5,5.8,100,0.00,0.00,0.00,30.5456,30.74
10min,FGNet,santaquin,42.01,02JAN2020:02:30:00,32.1,28.2,87,32.06,34.1,0,4.2,138.4,6.2,100,0.00,0.00,0.00,30.7796,30.9146
10min,FGNet,santaquin,42.01,02JAN2020:02:40:00,32.1,28.4,88,32.09,34.1,0,3.4,130.8,5.1,100,0.00,0.00,0.00,30.6824,30.9542
10min,FGNet,santaquin,42.01,02JAN2020:02:50:00,32.1,28.1,86,31.49,34.0,0,3.9,183.1,5.1,100,0.00,0.00,0.00,30.119,30.4682
10min,FGNet,santaquin,42.01,02JAN2020:03:00:00,30.6,27.4,88,31.57,34.0,0,5.1,204,6.7,100,0.00,0.00,0.00,29.147,29.4584
10min,FGNet,santaquin,42.01,02JAN2020:03:10:00,30.3,27.4,90,31.58,34.0,0,6.1,199.5,8.2,100,0.00,0.00,0.00,29.1272,29.381
10min,FGNet,santaquin,42.01,02JAN2020:03:20:00,30.2,27.4,91,31.53,34.1,0,6.5,199.8,8.9,100,0.00,0.00,0.00,29.3612,29.6924
10min,FGNet,santaquin,42.01,02JAN2020:03:30:00,31.2,27.7,90,32.09,34.1,0,5.7,197.6,8.2,100,0.00,0.00,0.00,30.353,31.0514
10min,FGNet,santaquin,42.01,02JAN2020:03:40:00,30.9,27.3,87,32.03,34.1,0,6.6,207.4,10.1,100,0.00,0.00,0.00,29.4008,29.7302
10min,FGNet,santaquin,42.01,02JAN2020:03:50:00,30.9,27.4,89,32.07,34.1,0,6.6,208.9,8.3,100,0.00,0.00,0.00,29.3414,29.75
10min,FGNet,santaquin,42.01,02JAN2020:04:00:00,31.1,27.4,88,32.01,34.1,0,5.1,204.1,6.7,100,0.00,0.00,0.00,29.6528,30.0614
10min,FGNet,santaquin,42.01,02JAN2020:04:10:00,31.8,27.2,85,32.07,34.1,0,5.0,221.1,6.5,100,0.00,0.00,0.00,29.8868,30.4682
10min,FGNet,santaquin,42.01,02JAN2020:04:20:00,31.5,27.3,86,32.04,34.1,0,4.6,222,6.4,100,0.00,0.00,0.00,30.0812,30.6248
10min,FGNet,santaquin,42.01,02JAN2020:04:30:00,31.7,27.1,85,30.98,34.0,0,4.0,251.8,6.5,100,0.00,0.00,0.00,29.4188,29.7896
10min,FGNet,santaquin,42.01,02JAN2020:04:40:00,31.1,27.3,88,32.02,34.1,0,3.2,188.8,5.5,100,0.00,0.00,0.00,29.5754,30.1586
10min,FGNet,santaquin,42.01,02JAN2020:04:50:00,31.5,27.3,86,32.05,34.1,0,1.8,186.4,4.8,100,0.00,0.00,0.00,30.2558,31.0892
10min,FGNet,santaquin,42.01,02JAN2020:05:00:00,31.6,26.7,83,32.01,34.1,0,2.8,202.4,5.7,100,0.00,0.00,0.00,29.4782,30.1388
10min,FGNet,santaquin,42.01,02JAN2020:05:10:00,31.1,26.9,85,32.01,34.1,0,3.4,183.8,5.7,100,0.00,0.00,0.00,29.2064,29.6726
10min,FGNet,santaquin,42.01,02JAN2020:05:20:00,30.9,26.5,84,32.03,34.1,0,3.2,155.8,4.9,100,0.00,0.00,0.00,28.3298,29.3612
10min,FGNet,santaquin,42.01,02JAN2020:05:30:00,30.6,26.1,83,32.04,34.1,0,1.2,150.4,3.0,100,0.00,0.00,0.00,28.3298,29.6132
10min,FGNet,santaquin,42.01,02JAN2020:05:40:00,30.8,26.0,83,31.98,34.1,0,0.0,182.7,0.0,100,0.00,0.00,0.00,28.0184,29.7896
10min,FGNet,santaquin,42.01,02JAN2020:05:50:00,31.3,25.5,80,31.53,34.0,0,2.3,199.6,4.0,100,0.00,0.00,0.00,28.2524,29.264
10min,FGNet,santaquin,42.01,02JAN2020:06:00:00,30.8,25.4,80,31.98,34.1,0,3.8,149.3,4.6,100,0.00,0.00,0.00,27.2372,28.2128
10min,FGNet,santaquin,42.01,02JAN2020:06:10:00,31.3,25.3,79,32.03,34.1,0,3.2,149.6,6.9,100,0.00,0.00,0.00,27.491,28.7582
10min,FGNet,santaquin,42.01,02JAN2020:06:20:00,30.7,24.7,78,31.99,34.1,0,3.3,136.1,4.2,100,0.00,0.00,0.00,27.5504,28.5836
10min,FGNet,santaquin,42.01,02JAN2020:06:30:00,31.1,24.7,77,31.99,34.1,0,3.3,135,4.6,100,0.00,0.00,0.00,28.076,29.2838
10min,FGNet,santaquin,42.01,02JAN2020:06:40:00,31.9,24.2,74,32.06,34.1,0,0.4,230.7,2.8,100,0.00,0.00,0.00,27.8816,30.1586
10min,FGNet,santaquin,42.01,02JAN2020:06:50:00,31.3,24.3,75,32.06,34.1,0,0.1,106.3,1.7,100,0.00,0.00,0.00,27.5108,28.3892
10min,FGNet,santaquin,42.01,02JAN2020:07:00:00,30.5,24.7,78,32.06,34.1,0,0.0,90.3,0.0,100,0.00,0.00,0.00,27.7646,28.6808
10min,FGNet,santaquin,42.01,02JAN2020:07:10:00,30.3,24.7,79,31.99,34.1,0,0.0,92.4,0.0,100,0.00,0.00,0.00,28.058,29.5358
10min,FGNet,santaquin,42.01,02JAN2020:07:20:00,31.6,23.6,73,32,34.1,0,1.4,113.2,4.0,100,0.00,0.00,0.00,27.725,29.0696
10min,FGNet,santaquin,42.01,02JAN2020:07:30:00,30.5,24.1,76,32.05,34.1,0,2.2,106,3.7,100,0.00,0.00,0.00,26.4362,27.7448
10min,FGNet,santaquin,42.01,02JAN2020:07:40:00,30.2,23.7,76,31.99,34.1,1,1.9,71.26,4.2,100,0.00,0.00,0.00,25.673,26.9654
10min,FGNet,santaquin,42.01,02JAN2020:07:50:00,29.7,23.4,75,32.01,34.1,3,1.6,103.7,4.0,100,0.00,0.00,0.00,26.7494,27.6476
10min,FGNet,santaquin,42.01,02JAN2020:08:00:00,30.6,23.1,73,32.08,34.1,7,2.1,92,3.7,100,0.00,0.00,0.00,27.9014,29.2442
10min,FGNet,santaquin,42.01,02JAN2020:08:10:00,30.7,22.9,72,32.01,34.1,18,0.2,153.1,3.0,100,0.00,0.00,0.00,30.1208,31.1306
10min,FGNet,santaquin,42.01,02JAN2020:08:20:00,31.0,22.6,70,32.02,34.1,28,0.4,268.5,2.8,100,0.00,0.00,0.00,29.5412,30.2792
10min,FGNet,santaquin,42.01,02JAN2020:08:30:00,29.8,22.1,72,32.02,34.1,34,0.0,322.7,0.0,100,0.00,0.00,0.00,29.8688,29.6168
10min,FGNet,santaquin,42.01,02JAN2020:08:40:00,29.3,22.1,74,32.03,34.1,47,1.0,324.2,3.7,100,0.00,0.00,0.00,31.5392,30.9758
10min,FGNet,santaquin,42.01,02JAN2020:08:50:00,28.9,22.3,76,32.04,34.1,51,3.9,215.5,6.7,100,0.00,0.00,0.00,30.5276,29.984
10min,FGNet,santaquin,42.01,02JAN2020:09:00:00,29.3,23.3,79,31.99,34.1,64,4.8,216.8,7.1,100,0.00,0.00,0.00,31.226,30.3908
10min,FGNet,santaquin,42.01,02JAN2020:09:10:00,29.0,23.9,82,31.49,34.0,69,5.8,219.2,7.8,100,0.00,0.00,0.00,30.3332,29.9048
10min,FGNet,santaquin,42.01,02JAN2020:09:20:00,28.7,24.2,84,32.05,34.1,78,7.1,230.1,8.7,100,0.00,0.00,0.00,30.002,29.4782
10min,FGNet,santaquin,42.01,02JAN2020:09:30:00,28.0,24.1,86,32.05,34.1,78,5.4,250.2,7.1,100,0.00,0.00,0.00,30.371,29.984
10min,FGNet,santaquin,42.01,02JAN2020:09:40:00,28.2,24.3,87,32.09,34.1,104,4.6,258.7,5.5,56.67,0.00,0.00,0.00,31.8668,31.478
10min,FGNet,santaquin,42.01,02JAN2020:09:50:00,28.7,24.4,85,31.54,34.0,123,5.5,258.1,7.3,0,0.00,0.00,0.00,32.6606,32.5058
10min,FGNet,santaquin,42.01,02JAN2020:10:00:00,29.2,24.4,84,31.47,34.0,146,5.8,228.9,7.8,0,0.00,0.00,0.00,32.7776,31.7894
10min,FGNet,santaquin,42.01,02JAN2020:10:10:00,29.7,24.6,83,32.02,34.1,132,6.7,193.1,8.0,0,0.00,0.00,0.00,32.3906,31.8074
10min,FGNet,santaquin,42.01,02JAN2020:10:20:00,29.8,24.1,81,32.02,34.1,141,7.3,210.6,8.9,0,0.00,0.00,0.00,32.855,32.0414
10min,FGNet,santaquin,42.01,02JAN2020:10:30:00,29.4,23.8,80,32,34.1,142,6.0,223.6,8.2,0,0.00,0.00,0.00,32.351,31.3232
10min,FGNet,santaquin,42.01,02JAN2020:10:40:00,29.2,23.9,81,30.96,34.0,229,5.0,229.4,6.5,0,0.00,0.00,0.00,33.6308,34.7378
10min,FGNet,santaquin,42.01,02JAN2020:10:50:00,29.8,24.2,82,30.41,34.0,371,6.6,225.2,8.0,58.33,0.00,0.00,0.00,33.377,35.0456
10min,FGNet,santaquin,42.01,02JAN2020:11:00:00,30.2,24.2,80,31.47,34.0,337,9.0,209.3,13.2,0,0.00,0.00,0.00,32.828,34.0124
10min,FGNet,santaquin,42.01,02JAN2020:11:10:00,29.9,23.8,79,31.87,34.1,355,10.6,202.9,13.5,0,0.00,0.00,0.00,33.719,35.096
10min,FGNet,santaquin,42.01,02JAN2020:11:20:00,29.9,23.9,80,31.87,34.1,391,11.4,203.7,14.2,0,0.00,0.00,0.00,33.755,34.8026
10min,FGNet,santaquin,42.01,02JAN2020:11:30:00,29.8,23.9,80,31.84,34.1,421,11.4,204.2,13.7,0,0.00,0.00,0.00,33.2636,35.573
10min,FGNet,santaquin,42.01,02JAN2020:11:40:00,30.3,24.0,79,31.83,34.1,409,11.0,204.3,13.9,0,0.00,0.00,0.00,35.843,35.609
10min,FGNet,santaquin,42.01,02JAN2020:11:50:00,30.4,23.6,77,31.84,34.1,339,11.8,203.1,14.6,0,0.00,0.00,0.00,36.1724,33.746
10min,FGNet,santaquin,42.01,02JAN2020:12:00:00,30.6,23.4,76,31.85,34.1,301,11.2,204.9,14.1,0,0.00,0.00,0.00,38.0588,34.5416
10min,FGNet,santaquin,42.01,02JAN2020:12:10:00,30.9,23.7,76,31.85,34.1,324,10.7,222.7,16.4,0,0.00,0.00,0.00,36.4622,33.3374
10min,FGNet,santaquin,42.01,02JAN2020:12:20:00,31.0,23.7,75,31.82,34.1,321,11.9,207.3,14.8,0,0.00,0.00,0.00,36.7358,34.2878
10min,FGNet,santaquin,42.01,02JAN2020:12:30:00,31.5,23.8,75,31.84,34.1,358,11.2,201.8,14.8,10,0.00,0.00,0.00,41.819,39.5816
10min,FGNet,santaquin,42.01,02JAN2020:12:40:00,32.5,24.3,73,31.8,34.1,503,11.1,192,14.6,100,0.00,0.00,0.00,40.4024,39.8534
10min,FGNet,santaquin,42.01,02JAN2020:12:50:00,32.5,24.4,73,31.29,34.0,502,9.7,205.8,12.3,100,0.00,0.00,0.00,46.2398,42.4796
10min,FGNet,santaquin,42.01,02JAN2020:13:00:00,32.6,24.3,73,31.87,34.1,644,11.1,200,13.5,100,0.00,0.00,0.00,46.886,42.0764
10min,FGNet,santaquin,42.01,02JAN2020:13:10:00,32.9,24.4,72,31.88,34.1,350,11.2,191.8,14.1,100,0.00,0.00,0.00,39.3836,36.6746
10min,FGNet,santaquin,42.01,02JAN2020:13:20:00,32.9,24.4,72,31.86,34.1,599,11.3,202.4,13.9,100,0.00,0.00,0.00,44.8646,42.0116
10min,FGNet,santaquin,42.01,02JAN2020:13:30:00,33.0,24.5,72,31.93,34.1,364,10.8,196.8,13.9,100,0.01,0.01,0.01,39.9506,36.1688
10min,FGNet,santaquin,42.01,02JAN2020:13:40:00,32.1,24.4,74,30.87,34.0,319,12.3,201.5,15.3,100,0.01,0.02,0.02,38.9336,35.9942
10min,FGNet,santaquin,42.01,02JAN2020:13:50:00,32.2,24.9,76,31.95,34.1,294,10.0,201.9,12.5,100,0.02,0.04,0.04,39.5186,35.8574
10min,FGNet,santaquin,42.01,02JAN2020:14:00:00,32.3,24.9,75,31.94,34.1,252,11.5,201,14.6,100,0.00,0.04,0.04,37.5692,35.3912
10min,FGNet,santaquin,42.01,02JAN2020:14:10:00,32.5,24.8,74,31.35,34.1,227,10.9,200.8,14.4,100,0.01,0.01,0.05,38.8544,35.5082
10min,FGNet,santaquin,42.01,02JAN2020:14:20:00,32.7,24.7,74,31.37,34.0,291,10.3,202.3,12.5,100,0.01,0.02,0.06,42.0314,39.2648
10min,FGNet,santaquin,42.01,02JAN2020:14:30:00,33.1,24.6,72,31.89,34.1,305,9.7,210.5,12.6,31.67,0.00,0.02,0.06,40.4402,36.518
10min,FGNet,santaquin,42.01,02JAN2020:14:40:00,32.7,25.0,74,31.89,34.1,196,8.4,213.6,11.7,0,0.00,0.02,0.06,36.3254,35.5874
10min,FGNet,santaquin,42.01,02JAN2020:14:50:00,33.4,24.4,71,31.93,34.1,377,8.1,211,11.7,0,0.00,0.02,0.06,47.858,43.673
10min,FGNet,santaquin,42.01,02JAN2020:15:00:00,33.2,25.2,73,30.85,34.0,297,8.1,217,10.5,0,0.00,0.02,0.06,39.9884,36.635
10min,FGNet,santaquin,42.01,02JAN2020:15:10:00,33.1,25.6,75,30.86,34.0,204,6.7,213.8,9.4,0,0.00,0.00,0.06,41.5202,36.9068
10min,FGNet,santaquin,42.01,02JAN2020:15:20:00,33.1,25.6,74,31.89,34.1,186,6.9,216.3,9.2,0,0.00,0.00,0.06,39.5582,36.8294
10min,FGNet,santaquin,42.01,02JAN2020:15:30:00,32.9,25.8,76,31.35,34.1,173,7.2,217,9.4,0,0.00,0.00,0.06,37.958,36.0716
10min,FGNet,santaquin,42.01,02JAN2020:15:40:00,32.9,26.0,76,31.38,34.1,151,8.1,206.5,10.1,0,0.00,0.00,0.06,33.899,33.2204
10min,FGNet,santaquin,42.01,02JAN2020:15:50:00,32.3,26.1,78,31.92,34.1,128,8.6,207.2,11.7,0,0.00,0.00,0.06,35.159,33.53
10min,FGNet,santaquin,42.01,02JAN2020:16:00:00,32.1,26.4,80,31.89,34.1,97,8.8,210.8,11.0,0,0.00,0.00,0.06,34.0772,32.7776
10min,FGNet,santaquin,42.01,02JAN2020:16:10:00,32.0,26.4,81,31.93,34.1,69,9.4,208.7,11.4,0,0.00,0.00,0.06,32.8766,32.198
10min,FGNet,santaquin,42.01,02JAN2020:16:20:00,32.0,26.4,81,31.41,34.1,39,7.7,209,11.0,0,0.00,0.00,0.06,32.2286,32.054
10min,FGNet,santaquin,42.01,02JAN2020:16:30:00,32.1,26.5,81,31.42,34.1,20,7.4,213.4,10.3,0,0.00,0.00,0.06,32.2106,32.2304
10min,FGNet,santaquin,42.01,02JAN2020:16:40:00,32.1,26.2,79,32.06,34.1,15,7.1,210.7,9.4,0,0.00,0.00,0.06,31.748,31.7084
10min,FGNet,santaquin,42.01,02JAN2020:16:50:00,31.9,26.4,81,30.97,34.0,17,7.1,200.6,9.1,0,0.00,0.00,0.06,31.7678,31.8254
10min,FGNet,santaquin,42.01,02JAN2020:17:00:00,32.3,26.6,80,30.86,34.0,36,4.4,195.3,6.7,0,0.00,0.00,0.06,33.3968,34.6568
10min,FGNet,santaquin,42.01,02JAN2020:17:10:00,33.2,26.0,75,31.99,34.1,19,2.9,134.5,4.8,0,0.00,0.00,0.06,32.7596,33.4958
10min,FGNet,santaquin,42.01,02JAN2020:17:20:00,33.9,25.0,70,30.39,34.0,6,4.2,127.6,5.3,0,0.00,0.00,0.06,32.081,32.7398
10min,FGNet,santaquin,42.01,02JAN2020:17:30:00,33.9,24.3,68,32.05,34.1,1,4.6,149.6,5.8,0,0.00,0.00,0.06,30.9002,31.928
10min,FGNet,santaquin,42.01,02JAN2020:17:40:00,33.0,24.2,69,32.01,34.1,0,5.0,170.4,6.4,0,0.00,0.00,0.06,29.291,30.6896
10min,FGNet,santaquin,42.01,02JAN2020:17:50:00,31.9,24.7,74,31.48,34.1,0,5.7,207,8.9,0,0.00,0.00,0.06,29.5826,30.6122
10min,FGNet,santaquin,42.01,02JAN2020:18:00:00,31.4,24.9,76,30.38,34.0,0,6.7,183.1,8.9,0,0.00,0.00,0.06,28.8446,29.8364
10min,FGNet,santaquin,42.01,02JAN2020:18:10:00,31.0,24.8,78,31.49,34.1,0,6.4,190.6,8.0,0,0.00,0.00,0.06,28.2056,29.372
10min,FGNet,santaquin,42.01,02JAN2020:18:20:00,30.7,24.6,77,31.44,34.1,0,7.2,197.2,8.5,0,0.00,0.00,0.06,27.8186,29.2784
10min,FGNet,santaquin,42.01,02JAN2020:18:30:00,29.8,24.1,79,29.84,34.0,0,6.6,201.3,8.7,0,0.00,0.00,0.06,26.6108,27.86
10min,FGNet,santaquin,42.01,02JAN2020:18:40:00,29.8,23.9,79,27.67,33.8,0,6.0,212.2,7.6,0,0.00,0.00,0.06,27.842,29.3612
10min,FGNet,santaquin,42.01,02JAN2020:18:50:00,30.2,24.0,78,29.81,34.0,0,8.3,197.3,12.1,0,0.00,0.00,0.06,28.1354,28.895
10min,FGNet,santaquin,42.01,02JAN2020:19:00:00,30.0,23.8,78,30.32,34.0,0,8.1,203.7,10.8,0,0.00,0.00,0.06,27.5108,28.5638
10min,FGNet,santaquin,42.01,02JAN2020:19:10:00,29.8,23.5,77,31.41,34.1,0,7.5,198.7,9.9,0,0.00,0.00,0.06,27.1994,28.6412
10min,FGNet,santaquin,42.01,02JAN2020:19:20:00,29.3,23.3,78,31.89,34.1,0,7.9,200.2,10.3,0,0.00,0.00,0.06,26.9258,27.959
10min,FGNet,santaquin,42.01,02JAN2020:19:30:00,29.9,23.4,77,31.45,34.1,0,7.7,209.5,10.3,0,0.00,0.00,0.06,26.6342,27.9212
10min,FGNet,santaquin,42.01,02JAN2020:19:40:00,29.3,23.1,77,31.43,34.1,0,7.4,200.8,9.6,0,0.00,0.00,0.06,27.5306,28.5836
10min,FGNet,santaquin,42.01,02JAN2020:19:50:00,29.6,22.9,76,31.41,34.1,0,7.7,213,9.1,0,0.00,0.00,0.06,27.0842,28.3334
10min,FGNet,santaquin,42.01,02JAN2020:20:00:00,28.7,22.4,76,32,34.1,0,8.6,213.2,10.8,0,0.00,0.00,0.06,26.0276,27.2408
10min,FGNet,santaquin,42.01,02JAN2020:20:10:00,27.8,22.2,79,31.41,34.1,0,8.3,213,9.4,0,0.00,0.00,0.06,25.4426,26.735
10min,FGNet,santaquin,42.01,02JAN2020:20:20:00,26.9,21.6,79,31.42,34.1,0,6.4,222.8,7.6,0,0.00,0.00,0.06,24.1088,25.7594
10min,FGNet,santaquin,42.01,02JAN2020:20:30:00,26.5,21.4,80,31.95,34.1,0,6.9,221.3,9.2,0,0.00,0.00,0.06,23.2232,24.7424
10min,FGNet,santaquin,42.01,02JAN2020:20:40:00,26.8,21.1,78,31.96,34.1,0,6.1,213,9.2,0,0.00,0.00,0.06,24.9422,26.3156
10min,FGNet,santaquin,42.01,02JAN2020:20:50:00,26.9,21.0,77,31.43,34.1,0,8.5,204.7,10.8,0,0.00,0.00,0.06,24.4922,25.4948
10min,FGNet,santaquin,42.01,02JAN2020:21:00:00,27.1,21.4,79,32.04,34.1,0,10.4,199.5,11.9,0,0.00,0.00,0.06,25.0646,25.6532
10min,FGNet,santaquin,42.01,02JAN2020:21:10:00,27.7,21.4,77,31.97,34.1,0,9.5,200.3,11.7,0,0.00,0.00,0.06,25.2806,26.3966
10min,FGNet,santaquin,42.01,02JAN2020:21:20:00,27.0,21.0,77,31.97,34.1,0,8.8,213.9,11.0,0,0.00,0.00,0.06,24.0026,25.2212
10min,FGNet,santaquin,42.01,02JAN2020:21:30:00,27.6,21.0,77,31.98,34.1,0,9.1,218.5,10.8,0,0.00,0.00,0.06,24.278,25.3976
10min,FGNet,santaquin,42.01,02JAN2020:21:40:00,25.8,20.1,79,31.45,34.1,0,9.5,211.8,11.9,0,0.00,0.00,0.06,24.908,25.5362
10min,FGNet,santaquin,42.01,02JAN2020:21:50:00,27.1,21.0,79,31.97,34.1,0,10.2,199.1,12.1,0,0.00,0.00,0.06,25.7324,26.3984
10min,FGNet,santaquin,42.01,02JAN2020:22:00:00,26.8,20.8,78,31.95,34.1,0,8.2,195.3,11.4,0,0.00,0.00,0.06,25.3202,25.8692
10min,FGNet,santaquin,42.01,02JAN2020:22:10:00,27.4,21.0,78,31.93,34.1,0,6.6,209.3,9.2,0,0.00,0.00,0.06,25.8692,26.573
10min,FGNet,santaquin,42.01,02JAN2020:22:20:00,28.6,21.5,76,31.89,34.1,0,5.5,199.6,8.5,0,0.00,0.00,0.06,28.31,28.7582
10min,FGNet,santaquin,42.01,02JAN2020:22:30:00,28.1,21.0,74,32.04,34.1,0,8.6,212.6,13.0,0,0.00,0.00,0.06,25.7324,26.0258
10min,FGNet,santaquin,42.01,02JAN2020:22:40:00,27.7,21.2,78,31.94,34.1,0,8.7,210.8,10.7,0,0.00,0.00,0.06,26.4956,26.8862
10min,FGNet,santaquin,42.01,02JAN2020:22:50:00,28.3,21.3,76,31.98,34.1,0,8.7,220.5,10.7,0,0.00,0.00,0.06,26.906,27.4136
10min,FGNet,santaquin,42.01,02JAN2020:23:00:00,27.9,21.1,76,31.97,34.1,0,9.7,222.7,11.7,0,0.00,0.00,0.06,26.4956,27.0626
10min,FGNet,santaquin,42.01,02JAN2020:23:10:00,28.2,21.0,76,31.95,34.1,0,10.4,214.2,12.3,0,0.00,0.00,0.06,26.123,26.906
10min,FGNet,santaquin,42.01,02JAN2020:23:20:00,27.6,20.8,76,31.91,34.1,0,10.5,215.1,14.4,0,0.00,0.00,0.06,26.159,26.6684
10min,FGNet,santaquin,42.01,02JAN2020:23:30:00,27.0,20.3,77,32.01,34.1,0,10.7,209.5,13.5,0,0.00,0.00,0.06,25.5308,26.0996
10min,FGNet,santaquin,42.01,02JAN2020:23:40:00,26.9,20.4,77,31.96,34.1,0,9.7,202.6,11.9,0,0.00,0.00,0.06,26.5694,27.2138
10min,FGNet,santaquin,42.01,02JAN2020:23:50:00,28.4,20.7,74,31.98,34.1,0,7.7,211.9,9.6,0,0.00,0.00,0.06,25.8062,26.6288
10min,FGNet,kaysville,42.03,02JAN2020:00:00:00,34.5,30.3,85,25.31,33.2,0,3.4,117.7,4.9,100,0.00,0.00,0.18,33.071,33.422
10min,FGNet,kaysville,42.03,02JAN2020:00:10:00,34.1,30.3,86,25.31,33.2,0,2.4,92,3.5,100,0.00,0.00,0.00,32.2934,32.4896
10min,FGNet,kaysville,42.03,02JAN2020:00:20:00,34.0,30.4,87,25.32,33.1,0,3.6,92.2,6.7,100,0.00,0.00,0.00,32.9918,33.1484
10min,FGNet,kaysville,42.03,02JAN2020:00:30:00,33.9,30.3,87,25.31,33.2,0,3.3,121.5,4.0,100,0.00,0.00,0.00,32.6066,33.0368
10min,FGNet,kaysville,42.03,02JAN2020:00:40:00,34.1,30.3,87,25.31,33.2,0,2.7,156.8,5.1,100,0.00,0.00,0.00,32.9018,33.2726
10min,FGNet,kaysville,42.03,02JAN2020:00:50:00,33.7,30.2,87,25.31,33.2,0,2.4,161.5,3.9,100,0.00,0.00,0.00,32.765,33.3122
10min,FGNet,kaysville,42.03,02JAN2020:01:00:00,33.8,30.2,87,25.31,33.2,0,2.1,240.2,5.3,100,0.00,0.00,0.00,32.9216,34.133
10min,FGNet,kaysville,42.03,02JAN2020:01:10:00,34.5,29.8,84,25.31,33.2,0,2.3,108.7,3.0,100,0.00,0.00,0.00,32.6876,33.1376
10min,FGNet,kaysville,42.03,02JAN2020:01:20:00,33.6,30.0,86,25.3,33.2,0,2.9,104.2,4.8,100,0.00,0.00,0.00,32.7632,32.9594
10min,FGNet,kaysville,42.03,02JAN2020:01:30:00,33.6,30.3,88,25.3,33.2,0,3.2,124.5,4.8,100,0.00,0.00,0.00,32.5904,32.6876
10min,FGNet,kaysville,42.03,02JAN2020:01:40:00,33.5,30.5,89,25.3,33.2,0,3.0,84.9,5.5,100,0.00,0.00,0.00,32.3744,32.5904
10min,FGNet,kaysville,42.03,02JAN2020:01:50:00,33.3,30.5,89,25.31,33.2,0,0.6,151,2.1,100,0.00,0.00,0.00,32.0612,32.4518
10min,FGNet,kaysville,42.03,02JAN2020:02:00:00,33.1,30.6,91,25.31,33.2,0,2.9,131.6,6.4,100,0.00,0.00,0.00,32.1206,32.1404
10min,FGNet,kaysville,42.03,02JAN2020:02:10:00,32.7,30.7,93,25.3,33.2,0,2.7,108.2,6.2,100,0.00,0.00,0.00,32.0594,32.0198
10min,FGNet,kaysville,42.03,02JAN2020:02:20:00,32.8,30.9,94,25.3,33.2,0,3.2,108.9,6.0,100,0.00,0.00,0.00,32.0234,31.8668
10min,FGNet,kaysville,42.03,02JAN2020:02:30:00,32.6,30.9,94,25.3,33.2,0,3.7,107.5,5.8,100,0.00,0.00,0.00,32.0234,31.829
10min,FGNet,kaysville,42.03,02JAN2020:02:40:00,32.4,31.0,95,25.3,33.2,0,4.0,129.9,6.9,100,0.00,0.00,0.00,31.9082,31.6346
10min,FGNet,kaysville,42.03,02JAN2020:02:50:00,32.2,31.0,96,25.3,33.2,0,3.2,154.9,4.4,100,0.00,0.00,0.00,31.5356,31.6724
10min,FGNet,kaysville,42.03,02JAN2020:03:00:00,32.2,31.0,96,25.3,33.2,0,2.9,195.2,5.3,100,0.00,0.00,0.00,31.5176,31.6346
10min,FGNet,kaysville,42.03,02JAN2020:03:10:00,32.1,31.0,97,25.3,33.2,0,2.6,172.6,4.4,100,0.00,0.00,0.00,31.2044,31.2818
10min,FGNet,kaysville,42.03,02JAN2020:03:20:00,31.9,30.8,97,25.3,33.2,0,2.0,99.4,3.7,100,0.00,0.00,0.00,30.8912,31.244
10min,FGNet,kaysville,42.03,02JAN2020:03:30:00,32.0,30.9,97,25.3,33.2,0,2.6,70.99,4.8,100,0.00,0.00,0.00,30.9308,31.1252
10min,FGNet,kaysville,42.03,02JAN2020:03:40:00,31.9,30.8,96,25.29,33.2,0,1.7,88.4,4.2,100,0.00,0.00,0.00,30.578,30.8138
10min,FGNet,kaysville,42.03,02JAN2020:03:50:00,31.5,30.6,97,25.29,33.1,0,1.7,86.9,3.9,100,0.00,0.00,0.00,28.8374,29.444
10min,FGNet,kaysville,42.03,02JAN2020:04:00:00,31.4,30.3,97,25.3,33.2,0,3.1,122.8,5.3,100,0.00,0.00,0.00,29.9156,30.1514
10min,FGNet,kaysville,42.03,02JAN2020:04:10:00,31.3,30.2,96,25.3,33.2,0,1.4,99,3.3,100,0.00,0.00,0.00,29.9984,30.1154
10min,FGNet,kaysville,42.03,02JAN2020:04:20:00,31.0,30.2,96,25.3,33.2,0,3.0,79.48,5.8,100,0.00,0.00,0.00,30.4304,30.3926
10min,FGNet,kaysville,42.03,02JAN2020:04:30:00,31.5,30.4,96,25.3,33.2,0,2.9,123.5,5.1,100,0.00,0.00,0.00,30.4718,30.7058
10min,FGNet,kaysville,42.03,02JAN2020:04:40:00,31.9,30.5,95,25.3,33.2,0,2.7,136.6,4.2,100,0.00,0.00,0.00,30.1586,30.4718
10min,FGNet,kaysville,42.03,02JAN2020:04:50:00,31.8,30.2,94,25.3,33.2,0,3.0,116.7,5.5,100,0.00,0.00,0.00,29.2586,29.9444
10min,FGNet,kaysville,42.03,02JAN2020:05:00:00,31.6,30.1,94,25.3,33.2,0,1.8,57.28,4.2,100,0.00,0.00,0.00,28.7492,29.5718
10min,FGNet,kaysville,42.03,02JAN2020:05:10:00,31.7,29.9,94,25.3,33.2,0,1.4,126.6,3.7,100,0.00,0.00,0.00,29.5916,30.1586
10min,FGNet,kaysville,42.03,02JAN2020:05:20:00,31.4,29.9,93,25.3,33.2,0,0.9,61.83,2.6,100,0.00,0.00,0.00,28.7888,29.2982
10min,FGNet,kaysville,42.03,02JAN2020:05:30:00,31.0,29.5,93,25.29,33.2,0,3.0,118.3,6.2,100,0.00,0.00,0.00,29.6114,29.8868
10min,FGNet,kaysville,42.03,02JAN2020:05:40:00,30.9,29.4,94,25.29,33.2,0,4.5,124.8,7.6,100,0.00,0.00,0.00,28.4018,28.9904
10min,FGNet,kaysville,42.03,02JAN2020:05:50:00,30.9,29.1,93,25.3,33.1,0,5.0,61.12,8.5,100,0.00,0.00,0.00,28.0112,28.5224
10min,FGNet,kaysville,42.03,02JAN2020:06:00:00,30.8,28.7,92,25.29,33.2,0,4.3,52.4,7.6,100,0.00,0.00,0.00,27.3056,28.1696
10min,FGNet,kaysville,42.03,02JAN2020:06:10:00,31.0,28.7,92,25.28,33.2,0,4.0,118.9,8.7,100,0.00,0.00,0.00,29.2676,29.543
10min,FGNet,kaysville,42.03,02JAN2020:06:20:00,31.7,29.0,91,25.29,33.1,0,3.2,128,5.7,100,0.00,0.00,0.00,29.426,29.8958
10min,FGNet,kaysville,42.03,02JAN2020:06:30:00,31.0,28.7,91,25.29,33.2,0,2.9,112.3,3.5,100,0.00,0.00,0.00,29.2298,29.6798
10min,FGNet,kaysville,42.03,02JAN2020:06:40:00,30.9,28.8,92,25.29,33.2,0,2.4,95.1,4.0,100,0.00,0.00,0.00,29.0336,29.7968
10min,FGNet,kaysville,42.03,02JAN2020:06:50:00,31.2,28.9,91,25.29,33.2,0,2.9,86.2,4.0,100,0.00,0.00,0.00,27.7394,28.5242
10min,FGNet,kaysville,42.03,02JAN2020:07:00:00,31.0,28.5,90,25.28,33.2,0,3.2,89.5,5.3,100,0.00,0.00,0.00,27.6602,28.328
10min,FGNet,kaysville,42.03,02JAN2020:07:10:00,30.5,28.0,90,25.29,33.2,0,3.2,126.2,5.7,100,0.00,0.00,0.00,28.229,28.9166
10min,FGNet,kaysville,42.03,02JAN2020:07:20:00,30.9,28.1,90,25.28,33.1,0,3.6,135.9,5.8,100,0.00,0.00,0.00,28.0526,29.1902
10min,FGNet,kaysville,42.03,02JAN2020:07:30:00,30.1,27.5,89,25.28,33.2,0,3.4,113.7,6.4,100,0.00,0.00,0.00,29.1506,29.5826
10min,FGNet,kaysville,42.03,02JAN2020:07:40:00,30.8,27.8,89,25.28,33.1,1,4.3,129.8,6.9,100,0.00,0.00,0.00,27.6998,28.6412
10min,FGNet,kaysville,42.03,02JAN2020:07:50:00,29.0,27.0,89,25.28,33.2,5,3.6,80.9,5.8,100,0.00,0.00,0.00,27.7772,27.9752
10min,FGNet,kaysville,42.03,02JAN2020:08:00:00,30.2,27.3,90,25.28,33.2,13,3.6,82.3,6.2,100,0.00,0.00,0.00,28.4846,29.0336
10min,FGNet,kaysville,42.03,02JAN2020:08:10:00,30.1,26.6,87,25.27,33.2,35,3.0,122.4,6.7,100,0.00,0.00,0.00,29.777,30.2864
10min,FGNet,kaysville,42.03,02JAN2020:08:20:00,30.6,27.1,88,25.27,33.2,44,3.2,162.3,6.0,100,0.00,0.00,0.00,30.11,30.443
10min,FGNet,kaysville,42.03,02JAN2020:08:30:00,30.7,27.4,88,25.27,33.2,36,2.9,138.3,4.9,100,0.00,0.00,0.00,30.7958,30.8732